[[{"header":{"parameterUnit":"m.s-1","parameterCategory":1,"la1":30.2991,"la2":30.254,"lo1":-89.0895,"lo2":-89.0444,"dy":0.0017,"dx":0.0017,"nx":28,"ny":28,"refTime":"2024-05-05T21:00:00:Z","depth":0,"parameterNumber":2,"parameterNumberName":"U-component_of_WINDS"},"data":[0,0,0,0,0,0,0,0,0,0,0,0,0,0,0,0,0,0,0,0,0,0,0,0,0,0,0,0,0,0,0,0,0,0,0,0,0,0,0,0,0,0,0,0,0,0,0,0,0,0,0,0,0,0,0,0,0,0,0.1991,0.1991,0,0.1972,0.1972,0.1972,0.1947,0.1947,0.1946,0.1946,0.1927,0.1927,0.1927,0,0,0,0,0,0,0,0,0,0,0,0,0,0.2004,0.2004,0.1991,0.1991,0.1991,0.1973,0.1972,0.1972,0.1947,0.1947,0.1946,0.1946,0.1927,0.1927,0.1927,0,0,0,0,0,0,0,0,0,0,0,0,0,0.1993,0.2004,0.1991,0.1976,0.1974,0.1973,0.1972,0.1972,0.1947,0.1947,0.1946,0.1945,0.1927,0.1927,0.1927,0.1939,0,0,0.1927,0.1927,0,0,0,0,0,0,0,0,0.1994,0.1993,0.1978,0.1977,0.1975,0.1961,0.197,0.1961,0.1947,0.1958,0.1946,0.1945,0.1939,0.1938,0.1936,0.1938,0.1937,0.1927,0.1927,0.1926,0.1926,0,0,0,0,0,0,0,0.1995,0.1993,0.1984,0.1978,0.1976,0.197,0.1968,0.1968,0.1952,0.1957,0.1955,0.1953,0.1938,0.1936,0.1935,0.1937,0.1927,0.1926,0.1926,0.1926,0.1946,0.1946,0,0,0,0,0,0,0.1998,0.1994,0.1984,0.1983,0.1983,0.197,0.1968,0.1967,0.1952,0.1949,0.1953,0.1952,0.1937,0.1936,0.1935,0.1946,0.1926,0.1926,0.1926,0.1945,0.1946,0.1946,0,0,0,0,0,0,0.1998,0.1997,0.1985,0.1988,0.1986,0.1971,0.197,0.1966,0.1964,0.195,0.1947,0.1954,0.1936,0.1935,0.1937,0.1945,0.1926,0.1926,0.1944,0.1945,0.1946,0.197,0,0,0,0,0,0,0.1999,0.1997,0.2002,0.1988,0.1986,0.1988,0.197,0.1967,0.1964,0.1962,0.195,0.1947,0.1936,0.1938,0.1937,0.1945,0.1926,0.1943,0.1945,0.1946,0.1969,0.1972,0.1974,0,0,0,0,0,0.1999,0.201,0.2002,0.2001,0.1991,0.1989,0.1988,0.1974,0.1965,0.1969,0.1959,0.1947,0.1945,0.1938,0.1938,0.1945,0.1943,0.1944,0.1946,0.1967,0.1971,0.1974,0,0,0,0,0,0,0.2025,0.2008,0.1999,0.2006,0.1999,0.1985,0.199,0.1979,0.1975,0.1973,0.1956,0.1953,0.1958,0.1952,0.1945,0.1955,0.1942,0.1943,0.1959,0.1962,0.1965,0.1966,0.1926,0,0,0,0,0,0.2031,0.2031,0.2016,0.2023,0.202,0.2006,0.2004,0.1994,0.1986,0.1983,0.1974,0.1967,0.1964,0.1963,0.196,0.1968,0.1964,0.1972,0.1975,0.1978,0.1979,0.1981,0.1984,0.1951,0.1951,0.1951,0,0,0.2045,0.2035,0.2036,0.2028,0.2022,0.2021,0.2003,0.2004,0.2003,0.1984,0.1985,0.1978,0.1969,0.1974,0.1976,0.1969,0.1987,0.1979,0.1981,0.1981,0.1983,0.1986,0.1989,0.1952,0.1952,0.1951,0,0,0.2069,0.2062,0.2066,0.206,0.205,0.204,0.2041,0.2028,0.2023,0.2024,0.2009,0.2008,0.2004,0.1998,0.1994,0.2014,0.2003,0.2014,0.2029,0.2032,0.2034,0.2036,0.2043,0.2045,0.2015,0.2015,0.2015,0,0.2086,0.2085,0.207,0.2071,0.2068,0.205,0.2054,0.2048,0.2038,0.2036,0.2029,0.2022,0.2015,0.2018,0.2022,0.202,0.202,0.2015,0.2035,0.2037,0.2039,0.2045,0.2047,0.2016,0.2016,0.2016,0.2016,0,0.2107,0.2106,0.2111,0.2101,0.2098,0.2101,0.2086,0.2085,0.2075,0.2066,0.2067,0.2057,0.2051,0.2051,0.2042,0.2052,0.2048,0.2038,0.2025,0.2044,0.2049,0.2051,0.2018,0.2018,0.2017,0.2017,0,0,0.2147,0.2128,0.213,0.2125,0.2112,0.2111,0.2113,0.2106,0.2105,0.2098,0.2099,0.2095,0.2085,0.2081,0.2071,0.2073,0.2089,0.2063,0.2062,0.2067,0.2098,0.2105,0.2108,0.2081,0.2081,0.2082,0.2099,0,0.2168,0.217,0.2156,0.2161,0.2159,0.2141,0.2142,0.2134,0.2126,0.2123,0.2113,0.211,0.2098,0.2095,0.2097,0.2087,0.2095,0.2085,0.2081,0.2081,0.2083,0.2111,0.2119,0.2136,0.2101,0.2101,0.2101,0,0.2193,0.2187,0.2192,0.2177,0.2176,0.2178,0.217,0.2168,0.2158,0.2151,0.2146,0.2134,0.2134,0.2122,0.2121,0.2115,0.2112,0.2106,0.2107,0.2105,0.2092,0.211,0.2141,0.2143,0.2105,0.2104,0.2104,0,0.222,0.2214,0.2215,0.2211,0.2195,0.2196,0.219,0.2179,0.2176,0.2169,0.2167,0.2161,0.2157,0.2152,0.2138,0.2131,0.2139,0.2126,0.2133,0.2133,0.2135,0.2135,0.2165,0.2134,0.2134,0.2134,0.2134,0,0.2245,0.2248,0.2227,0.2228,0.2231,0.2215,0.2218,0.221,0.22,0.2199,0.2183,0.2182,0.2164,0.2161,0.2151,0.2151,0.215,0.2144,0.2141,0.2145,0.2146,0.2143,0.2141,0.2135,0.2135,0.2135,0.2135,0,0.2276,0.2262,0.2263,0.2247,0.2243,0.2246,0.2232,0.2232,0.2222,0.222,0.2219,0.2203,0.2198,0.2184,0.2176,0.2169,0.2172,0.2167,0.2175,0.2173,0.2181,0.218,0.221,0.2212,0.2181,0.2181,0.2181,0,0.2293,0.2295,0.2279,0.2277,0.227,0.2267,0.2263,0.2247,0.2244,0.2232,0.2234,0.2228,0.2222,0.2215,0.2203,0.2196,0.219,0.2201,0.2189,0.2193,0.2189,0.2189,0.2189,0.2204,0.2204,0.2204,0.2205,0,0.2322,0.2315,0.231,0.2303,0.2299,0.2292,0.2285,0.2284,0.2266,0.2263,0.2257,0.2253,0.2244,0.2238,0.2229,0.2222,0.221,0.2208,0.221,0.2213,0.2218,0.2215,0.2182,0.2208,0.2207,0.2207,0.2207,0.2207,0.2346,0.2347,0.2335,0.233,0.2323,0.2316,0.2314,0.2304,0.2299,0.229,0.2281,0.2277,0.2266,0.2253,0.2246,0.2243,0.2236,0.2238,0.2239,0.2239,0.2241,0.2219,0.2241,0.2241,0.2241,0.2241,0.2241,0,0.2374,0.2366,0.2361,0.2351,0.2347,0.2336,0.2326,0.2323,0.232,0.2311,0.2305,0.2299,0.2292,0.2279,0.2272,0.2271,0.2265,0.2269,0.2269,0.2267,0.2247,0.2247,0.2274,0.2274,0.2274,0.2274,0.2274,0.2274,0.2389,0.2388,0.238,0.2375,0.2367,0.2362,0.2358,0.2351,0.2343,0.2337,0.2331,0.2323,0.2312,0.2303,0.2296,0.2293,0.229,0.2296,0.2291,0.2272,0.2269,0.2266,0.2265,0.2296,0.2296,0.2311,0.2311,0.2311]},{"header":{"parameterUnit":"m.s-1","parameterCategory":1,"la1":30.2991,"la2":30.254,"lo1":-89.0895,"lo2":-89.0444,"dy":0.0017,"dx":0.0017,"nx":28,"ny":28,"refTime":"2024-05-05T21:00:00:Z","depth":0,"parameterNumber":3,"parameterNumberName":"V-component_of_WINDS"},"data":[0,0,0,0,0,0,0,0,0,0,0,0,0,0,0,0,0,0,0,0,0,0,0,0,0,0,0,0,0,0,0,0,0,0,0,0,0,0,0,0,0,0,0,0,0,0,0,0,0,0,0,0,0,0,0,0,0,0,5.793,5.7931,0,5.8017,5.8018,5.8019,5.7955,5.7953,5.795,5.7947,5.8032,5.8036,5.8041,0,0,0,0,0,0,0,0,0,0,0,0,0,5.7704,5.7709,5.793,5.7931,5.7932,5.8017,5.8018,5.8019,5.7956,5.7953,5.7949,5.7946,5.803,5.8036,5.8041,0,0,0,0,0,0,0,0,0,0,0,0,0,5.7798,5.771,5.793,5.7911,5.791,5.8017,5.8018,5.8019,5.7957,5.7952,5.7948,5.7944,5.8028,5.8035,5.8042,5.817,0,0,5.8064,5.8068,0,0,0,0,0,0,0,0,5.7793,5.7806,5.7913,5.7913,5.7912,5.7971,5.7969,5.807,5.7958,5.7939,5.7947,5.7942,5.8015,5.8023,5.8048,5.8174,5.8178,5.8065,5.8069,5.8073,5.8075,0,0,0,0,0,0,0,5.7786,5.7802,5.7964,5.7914,5.7914,5.7896,5.7905,5.7988,5.7999,5.794,5.7936,5.7947,5.8013,5.8041,5.8049,5.8179,5.8065,5.8071,5.8076,5.8079,5.8414,5.8418,0,0,0,0,0,0,5.7782,5.7797,5.7961,5.7967,5.7841,5.7904,5.7914,5.7956,5.7998,5.8,5.7951,5.7944,5.8031,5.8041,5.8052,5.8204,5.8072,5.8079,5.8083,5.8409,5.8415,5.842,0,0,0,0,0,0,5.7778,5.7798,5.7958,5.7881,5.79,5.7912,5.7961,5.796,5.7988,5.8006,5.8007,5.7977,5.8028,5.8042,5.8142,5.8206,5.8083,5.8089,5.8404,5.8411,5.8417,5.851,0,0,0,0,0,0,5.7771,5.7796,5.7846,5.7883,5.7904,5.8048,5.7965,5.7965,5.8001,5.7993,5.8031,5.8033,5.8026,5.8131,5.8149,5.8214,5.8095,5.8398,5.8407,5.8415,5.8501,5.8519,5.8534,0,0,0,0,0,5.7764,5.7868,5.7849,5.7869,5.7968,5.8052,5.8064,5.8054,5.8007,5.8056,5.8067,5.8032,5.8197,5.8142,5.8161,5.823,5.8394,5.8405,5.8415,5.8494,5.8516,5.8534,0,0,0,0,0,0,5.7838,5.7873,5.7852,5.7972,5.801,5.8041,5.8103,5.8078,5.8129,5.8119,5.8103,5.8113,5.8217,5.8233,5.8172,5.8355,5.8287,5.8302,5.8341,5.8362,5.8378,5.8372,5.8101,0,0,0,0,0,5.7868,5.7935,5.7961,5.8064,5.8085,5.8091,5.8127,5.8117,5.8154,5.8169,5.8188,5.8225,5.8284,5.8324,5.838,5.8503,5.851,5.856,5.8576,5.859,5.8602,5.8668,5.869,5.8453,5.8453,5.8453,0,0,5.7931,5.7959,5.8002,5.808,5.8108,5.8176,5.8105,5.818,5.823,5.818,5.8276,5.8291,5.833,5.8442,5.8492,5.8459,5.8669,5.8603,5.8614,5.8619,5.8681,5.8703,5.8723,5.846,5.8459,5.8458,0,0,5.8081,5.811,5.8198,5.8228,5.8272,5.8275,5.8296,5.8332,5.834,5.8436,5.8401,5.8459,5.8562,5.8592,5.862,5.8782,5.875,5.88,5.8887,5.8951,5.8969,5.8986,5.9042,5.9063,5.8813,5.8813,5.8813,0,5.8154,5.8257,5.8246,5.8325,5.8359,5.8319,5.8408,5.8437,5.8496,5.852,5.8482,5.8611,5.8635,5.8753,5.8792,5.8817,5.8839,5.8795,5.8968,5.8984,5.8999,5.9053,5.9074,5.8819,5.8818,5.8817,5.8817,0,5.8343,5.8415,5.8481,5.8541,5.8583,5.8666,5.8667,5.871,5.8696,5.8703,5.88,5.8828,5.8888,5.8916,5.8902,5.9031,5.9009,5.897,5.8901,5.9028,5.9078,5.9098,5.8827,5.8825,5.8823,5.8822,0,0,5.8542,5.8595,5.862,5.8646,5.8691,5.8746,5.8826,5.8887,5.8924,5.8966,5.9032,5.9121,5.9085,5.9117,5.9106,5.9163,5.9287,5.9116,5.9117,5.9146,5.943,5.9459,5.9483,5.9267,5.9271,5.9274,5.9427,0,5.8694,5.8836,5.8829,5.8961,5.9026,5.8989,5.9059,5.9093,5.9102,5.9157,5.9165,5.9229,5.9177,5.9196,5.925,5.9261,5.9344,5.925,5.9327,5.933,5.9318,5.951,5.954,5.9683,5.9446,5.945,5.9452,0,5.889,5.894,5.908,5.9115,5.9142,5.9205,5.9259,5.9313,5.9351,5.9353,5.939,5.937,5.9449,5.9379,5.9488,5.9424,5.9455,5.9465,5.947,5.9476,5.9398,5.952,5.9728,5.975,5.9483,5.948,5.9478,0,5.902,5.9122,5.9219,5.9242,5.9286,5.9331,5.9351,5.9385,5.9421,5.9469,5.9492,5.9547,5.9577,5.962,5.9615,5.9565,5.9725,5.9655,5.9728,5.9728,5.9762,5.976,5.9978,5.9784,5.9784,5.9783,5.9783,0,5.919,5.9276,5.9278,5.9337,5.9432,5.9422,5.9516,5.9531,5.9561,5.9621,5.9592,5.9649,5.9639,5.9695,5.9691,5.9781,5.9795,5.9798,5.9795,5.98,5.98,5.982,5.9809,5.9789,5.9788,5.9787,5.9786,0,5.9351,5.9356,5.9458,5.9491,5.9502,5.957,5.9598,5.9653,5.9659,5.9735,5.9753,5.9762,5.9827,5.9826,5.9899,5.9896,6.0006,5.9993,5.9994,5.9991,6.0064,6.0057,6.0302,6.0333,6.0119,6.0121,6.0123,0,5.9459,5.9525,5.9565,5.9604,5.9627,5.969,5.9728,5.972,5.976,5.9808,5.9857,5.9919,5.9969,6.0074,6.0086,6.0141,6.0129,6.0211,6.0137,6.0139,6.0129,6.0125,6.0131,6.0225,6.0227,6.0229,6.0231,0,5.9649,5.9648,5.9705,5.9762,5.9808,5.9853,5.9893,5.9926,5.9923,5.9969,6.0036,6.0074,6.0149,6.0211,6.0265,6.0283,6.0256,6.0254,6.0274,6.0279,6.0276,6.0278,6.0033,6.0248,6.0246,6.0245,6.0244,6.0244,5.9786,5.9843,5.9881,5.9944,5.9974,6.0013,6.0066,6.008,6.0136,6.0197,6.0189,6.0263,6.0297,6.0367,6.039,6.0447,6.0418,6.0446,6.0454,6.0461,6.0468,6.0268,6.0456,6.0456,6.0456,6.0455,6.0455,0,5.9975,5.9997,6.0056,6.0114,6.0164,6.0136,6.0179,6.0222,6.0288,6.0324,6.0373,6.0449,6.0509,6.0526,6.0583,6.0625,6.0614,6.064,6.0637,6.0641,6.0491,6.0468,6.0648,6.0648,6.0648,6.0648,6.0648,6.0648,6.0079,6.0173,6.0176,6.0284,6.0305,6.0379,6.0406,6.0441,6.0469,6.0556,6.0606,6.0617,6.0645,6.0704,6.0757,6.076,6.0782,6.0813,6.0811,6.0671,6.0652,6.0633,6.0611,6.0818,6.0818,6.0956,6.0957,6.0958]}]]